Regional Weather Roundup
Issued by NWS Albany, NY

Home | Current Version | Previous Version | Text Only | Print | Product List | Glossary On
Versions: 1 2 3 4 5 6 7 8 9 10 11 12 13 14 15 16 17 18 19 20 21 22 23 24 25 26 27 28 29 30 31 32 33 34 35 36 37 38 39 40 41 42 43 44 45
000
ASUS41 KALY 291610
RWRALY

NEW YORK STATE HOURLY WEATHER ROUNDUP
NATIONAL WEATHER SERVICE ALBANY NY
1100 AM EST THU JAN 29 2015

NOTE: "FAIR" INDICATES FEW OR NO CLOUDS BELOW 12,000 FEET WITH NO
SIGNIFICANT WEATHER AND/OR NO OBSTRUCTIONS TO VISIBILITY.

NYZ032-033-038>043-046>054-057>066-NYZ062>081-291700-
EAST


CITY           SKY/WX    TMP DP  RH WIND       PRES   REMARKS
ALBANY         PTSUNNY   13   1  59 S3        30.28F
GLENS FALLS    SUNNY     13   4  67 SE6       30.26F WCI   4
POUGHKEEPSIE   SUNNY     19   2  47 CALM      30.31F
NEWBURGH       SUNNY    N/A N/A N/A CALM      30.29F
MONTGOMERY     SUNNY     19   1  45 CALM      30.28F
WHITE PLAINS   SUNNY     27  -1  30 SE6       30.27F WCI  20
ISLIP          PTSUNNY   31  12  45 CALM      30.29F
NEW YORK CITY  PTSUNNY   26   6  42 NE7       30.31F WCI  18
CENTRAL PARK   SUNNY     29   5  36 E3        30.32F
$$

NYZ005>009-017-018-044>046-055-056-291700-
CENTRAL


CITY           SKY/WX    TMP DP  RH WIND       PRES   REMARKS
FULTON         CLOUDY    20   3  48 SE12G18   30.07F WCI   8
SYRACUSE       CLOUDY    17   8  67 E12       30.08F WCI   4
ROME           MOSUNNY   20   3  48 SE8       30.18F WCI  10
ELMIRA         CLOUDY    10   5  80 S5        30.11F WCI   2
BINGHAMTON     CLOUDY    19   6  57 SE12      30.08F WCI   7
MONTICELLO     MOSUNNY   19   5  53 CALM      30.20F
$$

NYZ026>034-041>043-291700-
NORTH


CITY           SKY/WX    TMP DP  RH WIND       PRES   REMARKS
WATERTOWN      CLOUDY    22   6  50 E3        30.05F
FORT DRUM      NOT AVBL
MASSENA        SUNNY     16   3  56 NE7       30.15F WCI   6
SARANAC LAKE   SUNNY     15  -3  44 CALM      30.05F
PLATTSBURGH    MIX PCPN  19   8  62 SE9       30.20F WCI   8
$$

NYZ001>004-010>016-019>021-291700-
WEST


CITY           SKY/WX    TMP DP  RH WIND       PRES   REMARKS
NIAGARA FALLS  CLOUDY    31  10  41 S8        29.87F WCI  23
BUFFALO        CLOUDY    32   8  36 SE10      29.87F WCI  24
DUNKIRK        LGT RAIN  38  11  32 S22G33    29.82F WCI  27
JAMESTOWN      CLOUDY    28   3  34 S13       29.85F WCI  18
WELLSVILLE     CLOUDY    31  -5  21 S10G23    29.94F WCI  22
ROCHESTER      CLOUDY    32   5  32 S9        29.96F WCI  24
PENN YAN       CLOUDY    25   5  42 S12       30.03F WCI  14
$$

             KEY
       WCI = WIND CHILL INDEX
       VSB = VISIBILITY
       HX  = HEAT INDEX
$$


USA.gov is the U.S. government's official web portal to all federal, state and local government web resources and services.